Weather History for KSUW - January, 2013

Change the Weather History Date:

Saturday, January 26, 2013

  Actual Average Record
Temperature  
Mean Temperature 5 °F -  
Max Temperature 18 °F 20 °F 52 °F (1973)
Min Temperature -8 °F -2 °F -27 °F (1997)
Degree Days  
Heating Degree Days 60    
Moisture  
Dew Point -1 °F    
Average Humidity 74    
Maximum Humidity 89    
Minimum Humidity 61    
Precipitation  
Precipitation 0.00 in - - ()
Sea Level Pressure  
Sea Level Pressure 30.27 in    
Wind  
Wind Speed 4 mph (SSW)    
Max Wind Speed 8 mph    
Max Gust Speed -    
Visibility 10 miles    
Events      
Averages and records for this station are not official NWS values.
T = Trace of Precipitation, MM = Missing Value Source: NWS Daily Summary

Daily Weather History Graph

Daily Weather History Graph

Search for Another Location

Airport or City:

Trip Planner

Search our weather history database for the weather conditions in past years. The results will help you decide how hot, cold, wet, or windy it might be!

Date:

Astronomy

Jan. 26, 2013 Rise Set
Actual Time 7:39 AM CST 5:03 PM CST
Civil Twilight 7:06 AM CST 5:36 PM CST
Nautical Twilight 6:29 AM CST 6:13 PM CST
Astronomical Twilight 5:53 AM CST 6:48 PM CST
Moon 5:01 PM CST (1/26) 6:55 AM CST (1/26)
Length of Visible Light 10h 30m
Length of Day
9h 24m
Full, 100% of the Moon is Illuminated
Jan 26
Full
Jan 26
Full
Feb 3
Last Quarter
Feb 10
New
Feb 17
First Quarter

Hourly Weather History & Observations

Time (CST) Temp. Windchill Dew Point Humidity Pressure Visibility Wind Dir Wind Speed Gust Speed Precip Events Conditions
12:15 AM 3.6 °F -7.3 °F -3.5 °F 73% 30.29 in 10.0 mi NNW 5.8 mph - N/A   Clear
12:35 AM 2.1 °F -10.4 °F -4.5 °F 74% 30.30 in 10.0 mi NW 6.9 mph - N/A   Clear
12:55 AM 1.9 °F -10.6 °F -4.7 °F 74% 30.30 in 10.0 mi NW 6.9 mph - N/A   Clear
1:15 AM -0.0 °F -7.9 °F -5.6 °F 77% 30.30 in 10.0 mi SW 3.5 mph - N/A   Clear
1:35 AM -2.9 °F -15.0 °F -5.8 °F 87% 30.31 in 10.0 mi SW 5.8 mph - N/A   Clear
1:55 AM -1.8 °F -13.7 °F -6.0 °F 83% 30.31 in 10.0 mi SW 5.8 mph - N/A   Clear
2:15 AM -2.4 °F -14.4 °F -6.5 °F 82% 30.31 in 10.0 mi SW 5.8 mph - N/A   Clear
2:35 AM -3.1 °F -13.5 °F -6.9 °F 84% 30.31 in 10.0 mi WSW 4.6 mph - N/A   Clear
2:55 AM -4.2 °F -12.6 °F -7.2 °F 87% 30.30 in 10.0 mi SW 3.5 mph - N/A   Clear
3:15 AM -7.2 °F -20.1 °F -10.3 °F 87% 30.30 in 10.0 mi SW 5.8 mph - N/A   Clear
3:35 AM -4.0 °F -16.3 °F -7.8 °F 84% 30.30 in 10.0 mi West 5.8 mph - N/A   Clear
3:55 AM -4.7 °F -17.2 °F -8.5 °F 84% 30.30 in 10.0 mi WSW 5.8 mph - N/A   Clear
4:15 AM -5.4 °F -18.0 °F -9.4 °F 83% 30.30 in 10.0 mi SW 5.8 mph - N/A   Clear
4:35 AM -6.2 °F -17.1 °F -9.8 °F 84% 30.30 in 10.0 mi SW 4.6 mph - N/A   Clear
4:55 AM -5.8 °F -14.5 °F -9.8 °F 83% 30.31 in 10.0 mi SSW 3.5 mph - N/A   Clear
5:15 AM -5.1 °F -19.1 °F -8.9 °F 84% 30.31 in 10.0 mi SW 6.9 mph - N/A   Scattered Clouds
5:35 AM -6.0 °F -14.7 °F -9.9 °F 83% 30.32 in 10.0 mi SW 3.5 mph - N/A   Mostly Cloudy
5:55 AM -6.3 °F -15.1 °F -10.1 °F 84% 30.32 in 10.0 mi SW 3.5 mph - N/A   Scattered Clouds
6:15 AM -6.9 °F -15.7 °F -10.8 °F 83% 30.32 in 10.0 mi West 3.5 mph - N/A   Clear
6:35 AM -7.8 °F - -11.2 °F 85% 30.32 in 10.0 mi Calm Calm - N/A   Clear
7:15 AM -8.3 °F -21.4 °F -12.5 °F 82% 30.33 in 10.0 mi SW 5.8 mph - N/A   Clear
7:35 AM -7.2 °F -23.0 °F -11.4 °F 82% 30.34 in 10.0 mi SW 8.1 mph - N/A   Clear
7:55 AM -7.8 °F -20.8 °F -12.1 °F 81% 30.36 in 10.0 mi WSW 5.8 mph - N/A   Clear
8:15 AM -7.1 °F -18.1 °F -11.4 °F 81% 30.34 in 10.0 mi SW 4.6 mph - N/A   Clear
8:35 AM -5.6 °F -18.2 °F -10.3 °F 80% 30.35 in 10.0 mi WSW 5.8 mph - N/A   Scattered Clouds
8:55 AM -4.2 °F -12.6 °F -8.9 °F 80% 30.35 in 10.0 mi SSW 3.5 mph - N/A   Scattered Clouds
9:15 AM -2.2 °F - -7.4 °F 78% 30.36 in 10.0 mi Calm Calm - N/A   Clear
9:35 AM -0.9 °F -8.9 °F -6.2 °F 79% 30.36 in 10.0 mi South 3.5 mph - N/A   Clear
9:55 AM 0.3 °F -9.5 °F -5.1 °F 78% 30.36 in 10.0 mi SSE 4.6 mph - N/A   Scattered Clouds
10:15 AM 1.8 °F -5.8 °F -4.0 °F 77% 30.34 in 10.0 mi South 3.5 mph - N/A   Mostly Cloudy
10:35 AM 2.8 °F - -3.3 °F 76% 30.34 in 10.0 mi Calm Calm - N/A   Overcast
10:55 AM 3.6 °F -9.8 °F -2.7 °F 75% 30.37 in 10.0 mi WNW 8.1 mph - N/A   Overcast
11:15 AM 6.8 °F -0.1 °F -1.3 °F 69% 30.36 in 10.0 mi NNW 3.5 mph - N/A   Overcast
11:35 AM 7.0 °F - -1.5 °F 68% 30.34 in 10.0 mi Calm Calm - N/A   Overcast
11:55 AM 8.2 °F - -0.4 °F 68% 30.34 in 10.0 mi Calm Calm - N/A   Overcast
12:15 PM 9.7 °F - 0.5 °F 66% 30.33 in 10.0 mi Calm Calm - N/A   Overcast
12:35 PM 10.8 °F - 1.2 °F 65% 30.32 in 10.0 mi Calm Calm - N/A   Overcast
12:55 PM 10.8 °F - 1.2 °F 65% 30.31 in 10.0 mi Calm Calm - N/A   Overcast
1:15 PM 11.7 °F - 1.8 °F 65% 30.30 in 10.0 mi Calm Calm - N/A   Overcast
1:35 PM 13.6 °F - 3.6 °F 64% 30.29 in 10.0 mi Calm Calm - N/A   Overcast
1:55 PM 14.0 °F - 3.2 °F 62% 30.29 in 10.0 mi Calm Calm - N/A   Overcast
2:15 PM 14.4 °F 8.6 °F 4.1 °F 64% 30.28 in 10.0 mi East 3.5 mph - N/A   Overcast
2:35 PM 14.4 °F 8.6 °F 4.1 °F 64% 30.28 in 10.0 mi ENE 3.5 mph - N/A   Overcast
2:55 PM 14.7 °F - 4.8 °F 65% 30.27 in 10.0 mi Calm Calm - N/A   Overcast
3:15 PM 14.9 °F 9.2 °F 5.9 °F 68% 30.26 in 10.0 mi NE 3.5 mph - N/A   Overcast
3:35 PM 15.8 °F - 7.0 °F 68% 30.26 in 10.0 mi Calm Calm - N/A   Overcast
3:55 PM 16.7 °F - 7.3 °F 67% 30.24 in 10.0 mi Calm Calm - N/A   Overcast
4:15 PM 17.1 °F - 6.8 °F 64% 30.25 in 10.0 mi Calm Calm - N/A   Overcast
4:35 PM 16.9 °F - 7.9 °F 68% 30.23 in 10.0 mi Calm Calm - N/A   Overcast
4:55 PM 17.6 °F - 8.1 °F 66% 30.23 in 10.0 mi Calm Calm - N/A   Overcast
5:15 PM 17.4 °F - 7.9 °F 66% 30.22 in 10.0 mi Calm Calm - N/A   Mostly Cloudy
5:35 PM 18.1 °F - 6.6 °F 61% 30.21 in 10.0 mi Calm Calm - N/A   Scattered Clouds
5:55 PM 17.8 °F 12.5 °F 6.4 °F 61% 30.21 in 10.0 mi East 3.5 mph - N/A   Scattered Clouds
6:15 PM 17.6 °F - 6.6 °F 62% 30.20 in 10.0 mi Calm Calm - N/A   Clear
6:35 PM 17.6 °F 12.3 °F 6.8 °F 63% 30.20 in 10.0 mi East 3.5 mph - N/A   Clear
6:55 PM 17.8 °F 12.5 °F 7.2 °F 63% 30.20 in 10.0 mi East 3.5 mph - N/A   Clear
7:15 PM 17.6 °F 10.7 °F 7.3 °F 64% 30.19 in 10.0 mi ESE 4.6 mph - N/A   Clear
7:35 PM 17.6 °F 10.7 °F 7.2 °F 64% 30.19 in 10.0 mi SE 4.6 mph - N/A   Clear
7:55 PM 16.7 °F - 6.8 °F 65% 30.19 in 10.0 mi Calm Calm - N/A   Clear
8:15 PM 17.1 °F 11.7 °F 6.3 °F 63% 30.19 in 10.0 mi East 3.5 mph - N/A   Clear
8:35 PM 16.9 °F - 6.4 °F 64% 30.19 in 10.0 mi Calm Calm - N/A   Clear
8:55 PM 13.1 °F - 5.7 °F 72% 30.19 in 10.0 mi Calm Calm - N/A   Clear
9:15 PM 12.4 °F - 5.9 °F 75% 30.19 in 10.0 mi Calm Calm - N/A   Clear
9:35 PM 13.3 °F - 6.4 °F 74% 30.18 in 10.0 mi Calm Calm - N/A   Clear
9:55 PM 12.6 °F 6.5 °F 5.9 °F 75% 30.18 in 10.0 mi East 3.5 mph - N/A   Clear
10:15 PM 11.7 °F - 6.1 °F 78% 30.18 in 10.0 mi Calm Calm - N/A   Clear
10:35 PM 9.3 °F 2.8 °F 5.7 °F 85% 30.18 in 10.0 mi East 3.5 mph - N/A   Clear
10:55 PM 7.7 °F 1.0 °F 3.7 °F 84% 30.18 in 10.0 mi NE 3.5 mph - N/A   Clear
11:15 PM 7.0 °F - 4.3 °F 89% 30.18 in 10.0 mi Calm Calm - N/A   Clear
11:35 PM 5.9 °F - 2.7 °F 87% 30.17 in 10.0 mi Calm Calm - N/A   Clear
11:55 PM 5.4 °F -1.7 °F 2.7 °F 89% 30.17 in 10.0 mi East 3.5 mph - N/A   Clear